Regional Weather Roundup
Issued by NWS

Home | Current Version | Previous Version | Graphics & Text | Print | Product List | Glossary On
Versions: 1 2 3 4 5 6 7 8 9 10 11 12 13 14 15 16 17 18 19 20 21 22 23 24 25 26 27 28 29 30 31 32 33 34 35 36 37 38 39 40 41 42 43 44 45 46 47 48 49 50
000
ASUS45 KSLC 030810
RWRUT

UTAH REGIONAL WEATHER ROUNDUP
NATIONAL WEATHER SERVICE SALT LAKE CITY UT
100 AM MST SAT DEC 03 2016

UTZ001>011-023>025-030900-

NORTHERN UTAH

CITY           SKY/WX    TMP DP  RH WIND       PRES   REMARKS
BRIGHAM CITY     N/A     25  22  87 CALM      30.29S
HILL AFB       CLOUDY    23  15  71 E10       30.27R WCI  12
LOGAN          NOT AVBL
OGDEN          NOT AVBL
SALT LAKE CITY NOT AVBL
TOOELE VALLEY  MOCLDY    23  19  86 S10       30.30R WCI  12
WENDOVER       NOT AVBL
HEBER CITY     MOCLDY    12   9  85 CALM      30.24F
WEST JORDAN    CLOUDY    23  20  88 S5        30.29R WCI  17

$$

UTZ011>015-024>027-030900-

CENTRAL/NORTHEAST UTAH

CITY           SKY/WX    TMP DP  RH WIND       PRES   REMARKS
PROVO AIRPORT  MOCLDY    22  16  78 E3        30.30F
DELTA          MOCLDY    19  18  93 SW5       30.29S WCI  13
PRICE          NOT AVBL
ROOSEVELT      CLOUDY    16  10  79 W5        30.25S WCI   9
VERNAL         NOT AVBL

$$

UTZ013>016-019>022-027-030900-

SOUTHERN UTAH

CITY           SKY/WX    TMP DP  RH WIND       PRES   REMARKS
BRYCE CANYON   NOT AVBL
CEDAR CITY     NOT AVBL
MILFORD        CLEAR     20  15  81 NE3       30.26
BLANDING       CLEAR     22  16  76 NW6       30.19F WCI  15

$$

REGIONAL REPORTS     COLORADO/ARIZONA

CITY           SKY/WX    TMP DP  RH WIND       PRES   REMARKS
CRAIG, CO      CLOUDY    19  14  81 CALM      30.18F
GRAND JUNCTION CLEAR     24  19  81 CALM      30.20S
RIFLE, CO      CLOUDY    24  16  71 NW5       30.20F WCI  18
MONTROSE, CO   CLOUDY    25  20  81 S3        30.20F
CORTEZ, CO     CLEAR     18  17  96 NE6       30.12S WCI  10
COLORADO CITY    N/A     25  19  80 CALM      30.21F
PAGE, AZ       CLEAR     33  11  39 W5        30.15F WCI  29
GRAND CANYON   CLEAR    N/A N/A N/A NE10      30.09F
KINGMAN, AZ    CLEAR     34  12  40 E10       30.11F WCI  26
FLAGSTAFF, AZ  PTCLDY    25  15  66 NE17G29   30.03F WCI  12

$$

REGIONAL REPORTS    NEVADA/IDAHO/WYOMING

CITY           SKY/WX    TMP DP  RH WIND       PRES   REMARKS
LAS VEGAS, NV  CLEAR     45  10  24 N16       30.22F
ELY, NY        NOT AVBL
ELKO, NV       MOCLDY    19  14  81 CALM      30.29R
POCATELLO, ID  NOT AVBL
FORT BRIDGER,    N/A     17  11  78 W15G21    30.18F WCI   2
EVANSTON, WY   NOT AVBL
ROCK SPRINGS,  NOT AVBL

$$



USA.gov is the U.S. government's official web portal to all federal, state and local government web resources and services.